Home > Weather > Cúcuta > Past weeks

Flag for Colombia Weather for the Past 2 Weeks in Cúcuta, Colombia

Now
86 °F

Passing clouds.


Feels Like: 87 °F
Forecast: 68 / 98 °F
Wind: 8 mph from South

Location: Cucuta / Camilo Daza

Current Time: Feb 7, 2016 at 10:10:44 PM

Latest Report: Feb 7, 2016 at 9:00 PM


Visibility: N/A

Pressure: 29.93 "Hg

Humidity: 49%

Dew point: 64 °F

Location of CúcutaLocation

Historic Weather in Cúcuta — Graph

°F

Cúcuta Temperature Yesterday

Maximum temperature yesterday: 90 °F (at 2:00 PM)
Minimum temperature yesterday: 75 °F (at 5:00 AM)
Average temperature yesterday: 83 °F

High & Low Weather Summary for the Past Weeks

 TemperatureHumidityPressure
High99 °F (Jan 29, 12:00 PM)100% (Feb 1, 11:00 PM)30.10 "Hg (Feb 1, 11:00 PM)
Low72 °F (Jan 27, 6:00 AM)30% (Jan 28, 1:00 PM)29.81 "Hg (Feb 7, 4:00 PM)
Average83 °F60%29.95 "Hg
* Reported Jan 23 9:00 PM — Feb 7 9:00 PM, Cúcuta, Weather by CustomWeather, © 2016

Note: Actual official high and low records may vary slightly from our data, if they occured in-between our weather recording intervals... More about our weather records

Advertising

Cúcuta Weather History for the Previous 24 Hours

 ConditionsComfort  
Time TempWeatherWind HumidityBarometerVisibility
9:00 PM
Sun, Feb 7
86 °FPassing clouds.8 mph49%29.93 "HgN/A
8:00 PM86 °FPassing clouds.7 mph52%29.90 "HgN/A
7:00 PM86 °FPassing clouds.9 mph49%29.88 "HgN/A
6:00 PM88 °FPassing clouds.18 mph49%29.84 "HgN/A
5:00 PM91 °FScattered clouds.14 mph41%29.82 "HgN/A
4:00 PM91 °FScattered clouds.16 mph41%29.81 "HgN/A
3:00 PM93 °FScattered clouds.21 mph39%29.82 "HgN/A
2:00 PM91 °FScattered clouds.23 mph44%29.84 "HgN/A
1:00 PM88 °FScattered clouds.16 mph49%29.90 "HgN/A
12:00 PM88 °FScattered clouds.18 mph49%29.93 "HgN/A
11:00 AM88 °FScattered clouds.18 mph49%29.96 "Hg6 mi
10:00 AM86 °FFog.14 mph52%29.98 "Hg4 mi
9:00 AM81 °FScattered clouds.3 mph70%29.98 "Hg2 mi
8:00 AM79 °FScattered clouds.6 mph79%29.97 "Hg2 mi
7:00 AM75 °FScattered clouds.3 mph83%29.95 "Hg2 mi
6:00 AM75 °FPassing clouds.3 mph83%29.93 "Hg3 mi
5:00 AM79 °FPassing clouds.2 mph70%29.92 "Hg4 mi
11:00 PM
Sat, Feb 6
79 °FPassing clouds.2 mph70%29.95 "Hg5 mi
10:00 PM81 °FPassing clouds.2 mph66%29.95 "Hg5 mi
Weather by CustomWeather, © 2016

See weather overviewHow to use our weather pages